Data start date =,1/1/1964
Data end date/time =,5/4/2024 12:00
Vertical Datum =,MSL1912
""
Date/Time,UpperSAFalls
,Elev
UTC,ft
,Ave
1/2/1964 12:00,798.98
1/3/1964 12:00,798.95
1/4/1964 12:00,799.07
1/5/1964 12:00,799.00
1/6/1964 12:00,799.06
1/7/1964 12:00,798.80
1/8/1964 12:00,799.08
1/9/1964 12:00,798.90
1/10/1964 12:00,798.83
1/11/1964 12:00,799.01
1/12/1964 12:00,799.02
1/13/1964 12:00,798.95
1/14/1964 12:00,798.88
1/15/1964 12:00,798.98
1/16/1964 12:00,799.00
1/17/1964 12:00,798.92
1/18/1964 12:00,798.84
1/19/1964 12:00,798.86
1/20/1964 12:00,798.93
1/21/1964 12:00,798.99
1/22/1964 12:00,799.00
1/23/1964 12:00,798.96
1/24/1964 12:00,798.91
1/25/1964 12:00,798.87
1/26/1964 12:00,798.92
1/27/1964 12:00,798.98
1/28/1964 12:00,799.00
1/29/1964 12:00,798.95
1/30/1964 12:00,799.03
1/31/1964 12:00,799.03
2/1/1964 12:00,799.01
2/2/1964 12:00,799.19
2/3/1964 12:00,798.87
2/4/1964 12:00,798.92
2/5/1964 12:00,798.92
2/6/1964 12:00,798.99
2/7/1964 12:00,798.95
2/8/1964 12:00,798.99
2/9/1964 12:00,799.00
2/10/1964 12:00,798.99
2/11/1964 12:00,798.95
2/12/1964 12:00,798.96
2/13/1964 12:00,798.97
2/14/1964 12:00,798.94
2/15/1964 12:00,798.95
2/16/1964 12:00,799.13
2/17/1964 12:00,799.11
2/18/1964 12:00,798.99
2/19/1964 12:00,799.01
2/20/1964 12:00,799.03
2/21/1964 12:00,798.90
2/22/1964 12:00,798.97
2/23/1964 12:00,798.95
2/24/1964 12:00,798.85
2/25/1964 12:00,798.90
2/26/1964 12:00,798.81
2/27/1964 12:00,798.94
2/28/1964 12:00,798.96
2/29/1964 12:00,798.94
3/1/1964 12:00,798.92
3/2/1964 12:00,799.02
3/3/1964 12:00,798.94
3/4/1964 12:00,799.02
3/5/1964 12:00,798.84
3/6/1964 12:00,798.86
3/7/1964 12:00,798.94
3/8/1964 12:00,798.96
3/9/1964 12:00,798.85
3/10/1964 12:00,798.96
3/11/1964 12:00,798.91
3/12/1964 12:00,798.77
3/13/1964 12:00,799.18
3/14/1964 12:00,798.89
3/15/1964 12:00,798.97
3/16/1964 12:00,799.01
3/17/1964 12:00,799.19
3/18/1964 12:00,799.07
3/19/1964 12:00,799.18
3/20/1964 12:00,799.06
3/21/1964 12:00,798.90
3/22/1964 12:00,798.96
3/23/1964 12:00,799.04
3/24/1964 12:00,798.99
3/25/1964 12:00,798.86
3/26/1964 12:00,798.90
3/27/1964 12:00,798.88
3/28/1964 12:00,798.87
3/29/1964 12:00,798.82
3/30/1964 12:00,798.65
3/31/1964 12:00,798.80
4/1/1964 12:00,798.73
4/2/1964 12:00,798.78
4/3/1964 12:00,799.10
4/4/1964 12:00,799.14
4/5/1964 12:00,799.58
4/6/1964 12:00,799.62
4/7/1964 12:00,799.62
4/8/1964 12:00,798.82
4/9/1964 12:00,798.86
4/10/1964 12:00,798.60
4/11/1964 12:00,799.10
4/12/1964 12:00,799.22
4/13/1964 12:00,799.62
4/14/1964 12:00,799.63
4/15/1964 12:00,800.20
4/16/1964 12:00,800.20
4/17/1964 12:00,800.41
4/18/1964 12:00,800.14
4/19/1964 12:00,800.01
4/20/1964 12:00,800.01
4/21/1964 12:00,800.00
4/22/1964 12:00,800.01
4/23/1964 12:00,799.87
4/24/1964 12:00,800.12
4/25/1964 12:00,799.99
4/26/1964 12:00,799.98
4/27/1964 12:00,800.01
4/28/1964 12:00,799.85
4/29/1964 12:00,799.82
4/30/1964 12:00,799.52
5/1/1964 12:00,799.65
5/2/1964 12:00,799.57
5/3/1964 12:00,799.43
5/4/1964 12:00,799.46
5/5/1964 12:00,799.53
5/6/1964 12:00,799.73
5/7/1964 12:00,799.83
5/8/1964 12:00,800.20
5/9/1964 12:00,800.41
5/10/1964 12:00,800.47
5/11/1964 12:00,800.03
5/12/1964 12:00,800.27
5/13/1964 12:00,800.32
5/14/1964 12:00,800.33
5/15/1964 12:00,800.26
5/16/1964 12:00,800.18
5/17/1964 12:00,800.10
5/18/1964 12:00,799.94
5/19/1964 12:00,799.75
5/20/1964 12:00,799.66
5/21/1964 12:00,799.40
5/22/1964 12:00,799.27
5/23/1964 12:00,799.15
5/24/1964 12:00,799.10
5/25/1964 12:00,799.08
5/26/1964 12:00,798.72
5/27/1964 12:00,798.82
5/28/1964 12:00,798.60
5/29/1964 12:00,798.35
5/30/1964 12:00,798.14
5/31/1964 12:00,797.99
6/1/1964 12:00,797.84
6/2/1964 12:00,797.56
6/3/1964 12:00,797.53
6/4/1964 12:00,798.20
6/5/1964 12:00,799.39
6/6/1964 12:00,799.33
6/7/1964 12:00,799.58
6/8/1964 12:00,799.32
6/9/1964 12:00,798.73
6/10/1964 12:00,798.81
6/11/1964 12:00,798.92
6/12/1964 12:00,798.70
6/13/1964 12:00,798.79
6/14/1964 12:00,799.06
6/15/1964 12:00,799.18
6/16/1964 12:00,799.09
6/17/1964 12:00,799.06
6/18/1964 12:00,799.20
6/19/1964 12:00,799.15
6/20/1964 12:00,798.65
6/21/1964 12:00,799.41
6/22/1964 12:00,799.52
6/23/1964 12:00,799.82
6/24/1964 12:00,799.86
6/25/1964 12:00,800.01
6/26/1964 12:00,800.08
6/27/1964 12:00,800.17
6/28/1964 12:00,800.17
6/29/1964 12:00,800.20
6/30/1964 12:00,800.08
7/1/1964 12:00,800.07
7/2/1964 12:00,800.02
7/3/1964 12:00,800.00
7/4/1964 12:00,799.83
7/5/1964 12:00,799.87
7/6/1964 12:00,799.54
7/7/1964 12:00,799.67
7/8/1964 12:00,799.62
7/9/1964 12:00,799.52
7/10/1964 12:00,799.54
7/11/1964 12:00,799.50
7/12/1964 12:00,799.52
7/13/1964 12:00,799.38
7/14/1964 12:00,799.39
7/15/1964 12:00,799.38
7/16/1964 12:00,799.18
7/17/1964 12:00,798.99
7/18/1964 12:00,798.87
7/19/1964 12:00,798.80
7/20/1964 12:00,798.98
7/21/1964 12:00,798.73
7/22/1964 12:00,798.60
7/23/1964 12:00,798.82
7/24/1964 12:00,798.71
7/25/1964 12:00,798.61
7/26/1964 12:00,799.02
7/27/1964 12:00,799.02
7/28/1964 12:00,798.64
7/29/1964 12:00,798.76
7/30/1964 12:00,799.07
7/31/1964 12:00,798.96
8/1/1964 12:00,799.13
8/2/1964 12:00,798.91
8/3/1964 12:00,798.74
8/4/1964 12:00,799.11
8/5/1964 12:00,798.71
8/6/1964 12:00,798.81
8/7/1964 12:00,799.00
8/8/1964 12:00,798.77
8/9/1964 12:00,798.44
8/10/1964 12:00,798.97
8/11/1964 12:00,798.92
8/12/1964 12:00,798.58
8/13/1964 12:00,799.04
8/14/1964 12:00,798.66
8/15/1964 12:00,798.86
8/16/1964 12:00,798.86
8/17/1964 12:00,798.75
8/18/1964 12:00,798.81
8/19/1964 12:00,798.86
8/20/1964 12:00,798.84
8/21/1964 12:00,798.80
8/22/1964 12:00,799.04
8/23/1964 12:00,798.90
8/24/1964 12:00,799.17
8/25/1964 12:00,799.11
8/26/1964 12:00,799.00
8/27/1964 12:00,798.95
8/28/1964 12:00,798.75
8/29/1964 12:00,798.93
8/30/1964 12:00,798.76
8/31/1964 12:00,799.42
9/1/1964 12:00,799.55
9/2/1964 12:00,799.91
9/3/1964 12:00,799.96
9/4/1964 12:00,799.90
9/5/1964 12:00,799.92
9/6/1964 12:00,799.91
9/7/1964 12:00,799.77
9/8/1964 12:00,799.60
9/9/1964 12:00,799.99
9/10/1964 12:00,800.34
9/11/1964 12:00,800.50
9/12/1964 12:00,800.47
9/13/1964 12:00,800.53
9/14/1964 12:00,800.52
9/15/1964 12:00,800.58
9/16/1964 12:00,800.43
9/17/1964 12:00,800.41
9/18/1964 12:00,800.37
9/19/1964 12:00,800.29
9/20/1964 12:00,800.32
9/21/1964 12:00,800.10
9/22/1964 12:00,800.22
9/23/1964 12:00,800.16
9/24/1964 12:00,799.99
9/25/1964 12:00,800.05
9/26/1964 12:00,799.98
9/27/1964 12:00,799.98
9/28/1964 12:00,800.09
9/29/1964 12:00,800.06
9/30/1964 12:00,800.05
10/1/1964 12:00,800.02
10/2/1964 12:00,800.04
10/3/1964 12:00,800.11
10/4/1964 12:00,799.44
10/5/1964 12:00,799.73
10/6/1964 12:00,799.87
10/7/1964 12:00,799.80
10/8/1964 12:00,799.79
10/9/1964 12:00,799.87
10/10/1964 12:00,799.73
10/11/1964 12:00,799.60
10/12/1964 12:00,799.64
10/13/1964 12:00,799.59
10/14/1964 12:00,799.65
10/15/1964 12:00,799.62
10/16/1964 12:00,799.61
10/17/1964 12:00,799.63
10/18/1964 12:00,799.60
10/19/1964 12:00,799.57
10/20/1964 12:00,799.60
10/21/1964 12:00,799.55
10/22/1964 12:00,799.52
10/23/1964 12:00,799.36
10/24/1964 12:00,798.85
10/25/1964 12:00,799.48
10/26/1964 12:00,798.85
10/27/1964 12:00,799.31
10/28/1964 12:00,799.48
10/29/1964 12:00,799.37
10/30/1964 12:00,798.72
10/31/1964 12:00,798.97
11/1/1964 12:00,798.65
11/2/1964 12:00,799.35
11/3/1964 12:00,799.33
11/4/1964 12:00,799.35
11/5/1964 12:00,799.06
11/6/1964 12:00,798.43
11/7/1964 12:00,798.85
11/8/1964 12:00,798.49
11/9/1964 12:00,798.97
11/10/1964 12:00,798.63
11/11/1964 12:00,798.97
11/12/1964 12:00,798.72
11/13/1964 12:00,799.36
11/14/1964 12:00,799.34
11/15/1964 12:00,799.31
11/16/1964 12:00,799.31
11/17/1964 12:00,799.18
11/18/1964 12:00,799.46
11/19/1964 12:00,799.34
11/20/1964 12:00,799.12
11/21/1964 12:00,798.31
11/22/1964 12:00,798.14
11/23/1964 12:00,798.64
11/24/1964 12:00,798.97
11/25/1964 12:00,798.80
11/26/1964 12:00,798.53
11/27/1964 12:00,798.77
11/28/1964 12:00,798.68
11/29/1964 12:00,798.75
11/30/1964 12:00,798.84
12/1/1964 12:00,798.70
12/2/1964 12:00,798.76
12/3/1964 12:00,798.83
12/4/1964 12:00,798.98
12/5/1964 12:00,798.97
12/6/1964 12:00,799.11
12/7/1964 12:00,798.95
12/8/1964 12:00,798.94
12/9/1964 12:00,799.04
12/10/1964 12:00,798.93
12/11/1964 12:00,798.88
12/12/1964 12:00,799.27
12/13/1964 12:00,799.03
12/14/1964 12:00,799.05
12/15/1964 12:00,798.98
12/16/1964 12:00,798.89
12/17/1964 12:00,799.02
12/18/1964 12:00,798.92
12/19/1964 12:00,799.07
12/20/1964 12:00,798.93
12/21/1964 12:00,798.90
12/22/1964 12:00,799.00
12/23/1964 12:00,798.82
12/24/1964 12:00,798.90
12/25/1964 12:00,798.93
12/26/1964 12:00,798.91
12/27/1964 12:00,798.81
12/28/1964 12:00,798.79
12/29/1964 12:00,799.02
12/30/1964 12:00,798.99
12/31/1964 12:00,798.82
1/1/1965 12:00,798.93
1/2/1965 12:00,798.96
1/3/1965 12:00,798.98
1/4/1965 12:00,799.00
1/5/1965 12:00,798.90
1/6/1965 12:00,798.90
1/7/1965 12:00,798.90
1/8/1965 12:00,798.99
1/9/1965 12:00,799.09
1/10/1965 12:00,798.98
1/11/1965 12:00,799.02
1/12/1965 12:00,799.12
1/13/1965 12:00,799.05
1/14/1965 12:00,799.10
1/15/1965 12:00,799.07
1/16/1965 12:00,799.04
1/17/1965 12:00,798.89
1/18/1965 12:00,798.94
1/19/1965 12:00,798.96
1/20/1965 12:00,798.95
1/21/1965 12:00,798.86
1/22/1965 12:00,799.04
1/23/1965 12:00,799.04
1/24/1965 12:00,798.88
1/25/1965 12:00,798.91
1/26/1965 12:00,798.93
1/27/1965 12:00,799.06
1/28/1965 12:00,799.03
1/29/1965 12:00,798.80
1/30/1965 12:00,798.95
1/31/1965 12:00,798.82
2/1/1965 12:00,798.87
2/2/1965 12:00,798.92
2/3/1965 12:00,799.11
2/4/1965 12:00,799.07
2/5/1965 12:00,798.70
2/6/1965 12:00,798.90
2/7/1965 12:00,798.90
2/8/1965 12:00,799.04
2/9/1965 12:00,798.98
2/10/1965 12:00,798.65
2/11/1965 12:00,799.09
2/12/1965 12:00,798.90
2/13/1965 12:00,798.97
2/14/1965 12:00,798.98
2/15/1965 12:00,798.97
2/16/1965 12:00,798.94
2/17/1965 12:00,798.97
2/18/1965 12:00,798.76
2/19/1965 12:00,799.02
2/20/1965 12:00,798.83
2/21/1965 12:00,799.42
2/22/1965 12:00,798.77
2/23/1965 12:00,798.99
2/24/1965 12:00,799.00
2/25/1965 12:00,798.90
2/26/1965 12:00,798.97
2/27/1965 12:00,799.00
2/28/1965 12:00,798.90
3/1/1965 12:00,799.29
3/2/1965 12:00,798.91
3/3/1965 12:00,799.02
3/4/1965 12:00,799.06
3/5/1965 12:00,799.09
3/6/1965 12:00,798.80
3/7/1965 12:00,799.09
3/8/1965 12:00,799.03
3/9/1965 12:00,798.91
3/10/1965 12:00,799.07
3/11/1965 12:00,798.92
3/12/1965 12:00,799.09
3/13/1965 12:00,798.95
3/14/1965 12:00,798.81
3/15/1965 12:00,798.90
3/16/1965 12:00,798.85
3/17/1965 12:00,799.05
3/18/1965 12:00,798.99
3/19/1965 12:00,798.92
3/20/1965 12:00,799.07
3/21/1965 12:00,799.00
3/22/1965 12:00,799.00
3/23/1965 12:00,798.97
3/24/1965 12:00,799.01
3/25/1965 12:00,799.05
3/26/1965 12:00,799.02
3/27/1965 12:00,798.96
3/28/1965 12:00,798.86
3/29/1965 12:00,799.14
3/30/1965 12:00,798.90
3/31/1965 12:00,799.21
4/1/1965 12:00,798.79
4/2/1965 12:00,798.92
4/3/1965 12:00,798.91
4/4/1965 12:00,799.12
4/5/1965 12:00,799.15
4/6/1965 12:00,799.56
4/7/1965 12:00,799.63
4/8/1965 12:00,799.70
4/9/1965 12:00,799.61
4/10/1965 12:00,799.92
4/11/1965 12:00,799.82
4/12/1965 12:00,799.97
4/13/1965 12:00,801.12
4/14/1965 12:00,802.33
4/15/1965 12:00,802.79
4/16/1965 12:00,803.36
4/17/1965 12:00,803.41
4/18/1965 12:00,803.30
4/19/1965 12:00,803.02
4/20/1965 12:00,802.75
4/21/1965 12:00,802.50
4/22/1965 12:00,802.16
4/23/1965 12:00,801.78
4/24/1965 12:00,801.48
4/25/1965 12:00,801.26
4/26/1965 12:00,801.07
4/27/1965 12:00,800.69
4/28/1965 12:00,800.45
4/29/1965 12:00,800.27
4/30/1965 12:00,800.15
5/1/1965 12:00,799.94
5/2/1965 12:00,799.78
5/3/1965 12:00,799.53
5/4/1965 12:00,800.65
5/5/1965 12:00,800.51
5/6/1965 12:00,800.27
5/7/1965 12:00,799.37
5/8/1965 12:00,799.34
5/9/1965 12:00,799.50
5/10/1965 12:00,799.55
5/11/1965 12:00,799.51
5/12/1965 12:00,799.42
5/13/1965 12:00,799.43
5/14/1965 12:00,799.24
5/15/1965 12:00,799.39
5/16/1965 12:00,799.35
5/17/1965 12:00,799.24
5/18/1965 12:00,799.45
5/19/1965 12:00,799.64
5/20/1965 12:00,799.75
5/21/1965 12:00,799.77
5/22/1965 12:00,799.86
5/23/1965 12:00,799.77
5/24/1965 12:00,799.81
5/25/1965 12:00,800.00
5/26/1965 12:00,800.19
5/27/1965 12:00,800.34
5/28/1965 12:00,800.31
5/29/1965 12:00,800.32
5/30/1965 12:00,800.31
5/31/1965 12:00,800.31
6/1/1965 12:00,800.60
6/2/1965 12:00,800.18
6/3/1965 12:00,800.14
6/4/1965 12:00,800.18
6/5/1965 12:00,800.31
6/6/1965 12:00,800.42
6/7/1965 12:00,800.61
6/8/1965 12:00,800.74
6/9/1965 12:00,800.88
6/10/1965 12:00,801.02
6/11/1965 12:00,801.10
6/12/1965 12:00,801.22
6/13/1965 12:00,801.18
6/14/1965 12:00,801.04
6/15/1965 12:00,800.84
6/16/1965 12:00,800.66
6/17/1965 12:00,800.45
6/18/1965 12:00,800.19
6/19/1965 12:00,799.95
6/20/1965 12:00,799.90
6/21/1965 12:00,799.75
6/22/1965 12:00,799.65
6/23/1965 12:00,799.54
6/24/1965 12:00,799.51
6/25/1965 12:00,799.13
6/26/1965 12:00,798.92
6/27/1965 12:00,798.96
6/28/1965 12:00,799.00
6/29/1965 12:00,798.92
6/30/1965 12:00,798.72
7/1/1965 12:00,798.60
7/2/1965 12:00,798.73
7/3/1965 12:00,798.56
7/4/1965 12:00,798.35
7/5/1965 12:00,798.31
7/6/1965 12:00,798.18
7/7/1965 12:00,798.25
7/8/1965 12:00,798.22
7/9/1965 12:00,798.39
7/10/1965 12:00,798.27
7/11/1965 12:00,798.22
7/12/1965 12:00,798.11
7/13/1965 12:00,798.15
7/14/1965 12:00,799.26
7/15/1965 12:00,799.83
7/16/1965 12:00,799.57
7/17/1965 12:00,799.67
7/18/1965 12:00,799.31
7/19/1965 12:00,799.15
7/20/1965 12:00,798.97
7/21/1965 12:00,798.93
7/22/1965 12:00,798.97
7/23/1965 12:00,798.77
7/24/1965 12:00,799.00
7/25/1965 12:00,798.78
7/26/1965 12:00,798.59
7/27/1965 12:00,798.43
7/28/1965 12:00,798.36
7/29/1965 12:00,798.21
7/30/1965 12:00,799.08
7/31/1965 12:00,799.75
8/1/1965 12:00,799.72
8/2/1965 12:00,799.59
8/3/1965 12:00,799.77
8/4/1965 12:00,799.57
8/5/1965 12:00,799.64
8/6/1965 12:00,799.66
8/7/1965 12:00,799.59
8/8/1965 12:00,799.93
8/9/1965 12:00,799.77
8/10/1965 12:00,799.63
8/11/1965 12:00,799.75
8/12/1965 12:00,799.88
8/13/1965 12:00,799.75
8/14/1965 12:00,799.63
8/15/1965 12:00,799.59
8/16/1965 12:00,799.46
8/17/1965 12:00,799.53
8/18/1965 12:00,799.52
8/19/1965 12:00,799.41
8/20/1965 12:00,799.54
8/21/1965 12:00,799.51
8/22/1965 12:00,798.46
8/23/1965 12:00,799.16
8/24/1965 12:00,798.91
8/25/1965 12:00,799.11
8/26/1965 12:00,799.44
8/27/1965 12:00,799.48
8/28/1965 12:00,799.58
8/29/1965 12:00,799.55
8/30/1965 12:00,799.50
8/31/1965 12:00,799.57
9/1/1965 12:00,799.57
9/2/1965 12:00,799.46
9/3/1965 12:00,799.52
9/4/1965 12:00,799.69
9/5/1965 12:00,798.91
9/6/1965 12:00,799.42
9/7/1965 12:00,799.30
9/8/1965 12:00,799.64
9/9/1965 12:00,799.33
9/10/1965 12:00,799.39
9/11/1965 12:00,799.49
9/12/1965 12:00,799.25
9/13/1965 12:00,799.39
9/14/1965 12:00,799.66
9/15/1965 12:00,799.75
9/16/1965 12:00,799.87
9/17/1965 12:00,800.00
9/18/1965 12:00,800.13
9/19/1965 12:00,800.20
9/20/1965 12:00,800.29
9/21/1965 12:00,800.31
9/22/1965 12:00,800.35
9/23/1965 12:00,800.27
9/24/1965 12:00,800.38
9/25/1965 12:00,800.37
9/26/1965 12:00,800.43
9/27/1965 12:00,800.37
9/28/1965 12:00,800.33
9/29/1965 12:00,800.38
9/30/1965 12:00,800.55
10/1/1965 12:00,800.08
10/2/1965 12:00,800.34
10/3/1965 12:00,800.55
10/4/1965 12:00,800.23
10/5/1965 12:00,800.27
10/6/1965 12:00,800.38
10/7/1965 12:00,800.37
10/8/1965 12:00,800.38
10/9/1965 12:00,800.34
10/10/1965 12:00,800.22
10/11/1965 12:00,800.19
10/12/1965 12:00,800.13
10/13/1965 12:00,800.03
10/14/1965 12:00,799.91
10/15/1965 12:00,799.87
10/16/1965 12:00,799.80
10/17/1965 12:00,799.68
10/18/1965 12:00,799.73
10/19/1965 12:00,799.69
10/20/1965 12:00,799.80
10/21/1965 12:00,799.82
10/22/1965 12:00,799.80
10/23/1965 12:00,799.76
10/24/1965 12:00,799.86
10/25/1965 12:00,799.74
10/26/1965 12:00,799.72
10/27/1965 12:00,799.45
10/28/1965 12:00,799.53
10/29/1965 12:00,799.42
10/30/1965 12:00,799.39
10/31/1965 12:00,799.32
11/1/1965 12:00,799.14
11/2/1965 12:00,799.10
11/3/1965 12:00,799.19
11/4/1965 12:00,799.04
11/5/1965 12:00,798.98
11/6/1965 12:00,799.00
11/7/1965 12:00,798.84
11/8/1965 12:00,799.26
11/9/1965 12:00,798.93
11/10/1965 12:00,798.71
11/11/1965 12:00,798.69
11/12/1965 12:00,798.70
11/13/1965 12:00,798.74
11/14/1965 12:00,798.65
11/15/1965 12:00,798.48
11/16/1965 12:00,798.86
11/17/1965 12:00,798.80
11/18/1965 12:00,798.52
11/19/1965 12:00,798.70
11/20/1965 12:00,798.59
11/21/1965 12:00,798.58
11/22/1965 12:00,798.66
11/23/1965 12:00,798.60
11/24/1965 12:00,798.58
11/25/1965 12:00,798.42
11/26/1965 12:00,798.52
11/27/1965 12:00,798.79
11/28/1965 12:00,797.89
11/29/1965 12:00,797.79
11/30/1965 12:00,797.83
12/1/1965 12:00,797.39
12/2/1965 12:00,798.00
12/3/1965 12:00,798.37
12/4/1965 12:00,798.80
12/5/1965 12:00,798.96
12/6/1965 12:00,799.06
12/7/1965 12:00,798.88
12/8/1965 12:00,798.46
12/9/1965 12:00,798.90
12/10/1965 12:00,798.89
12/11/1965 12:00,798.99
12/12/1965 12:00,799.17
12/13/1965 12:00,799.32
12/14/1965 12:00,799.43
12/15/1965 12:00,799.30
12/16/1965 12:00,798.99
12/17/1965 12:00,799.43
12/18/1965 12:00,799.53
12/19/1965 12:00,799.29
12/20/1965 12:00,799.30
12/21/1965 12:00,799.27
12/22/1965 12:00,799.48
12/23/1965 12:00,799.32
12/24/1965 12:00,799.59
12/25/1965 12:00,799.50
12/26/1965 12:00,799.62
12/27/1965 12:00,799.27
12/28/1965 12:00,798.66
12/29/1965 12:00,798.63
12/30/1965 12:00,799.01
12/31/1965 12:00,799.01
1/1/1966 12:00,798.86
1/2/1966 12:00,798.95
1/3/1966 12:00,799.14
1/4/1966 12:00,799.07
1/5/1966 12:00,798.79
1/6/1966 12:00,798.83
1/7/1966 12:00,798.51
1/8/1966 12:00,798.11
1/9/1966 12:00,798.33
1/10/1966 12:00,798.92
1/11/1966 12:00,798.50
1/12/1966 12:00,798.48
1/13/1966 12:00,798.56
1/14/1966 12:00,798.61
1/15/1966 12:00,798.62
1/16/1966 12:00,798.55
1/17/1966 12:00,798.57
1/18/1966 12:00,798.52
1/19/1966 12:00,798.55
1/20/1966 12:00,798.53
1/21/1966 12:00,798.52
1/22/1966 12:00,798.52
1/23/1966 12:00,798.49
1/24/1966 12:00,798.47
1/25/1966 12:00,798.42
1/26/1966 12:00,798.38
1/27/1966 12:00,798.50
1/28/1966 12:00,798.36
1/29/1966 12:00,798.30
1/30/1966 12:00,798.33
1/31/1966 12:00,798.31
2/1/1966 12:00,798.39
2/2/1966 12:00,798.34
2/3/1966 12:00,798.25
2/4/1966 12:00,798.25
2/5/1966 12:00,798.17
2/6/1966 12:00,798.20
2/7/1966 12:00,798.13
2/8/1966 12:00,798.31
2/9/1966 12:00,798.74
2/10/1966 12:00,799.57
2/11/1966 12:00,799.88
2/12/1966 12:00,799.69
2/13/1966 12:00,799.64
2/14/1966 12:00,799.64
2/15/1966 12:00,799.68
2/16/1966 12:00,799.77
2/17/1966 12:00,799.60
2/18/1966 12:00,799.63
2/19/1966 12:00,799.46
2/20/1966 12:00,799.22
2/21/1966 12:00,799.05
2/22/1966 12:00,798.97
2/23/1966 12:00,798.70
2/24/1966 12:00,798.74
2/25/1966 12:00,798.44
2/26/1966 12:00,798.42
2/27/1966 12:00,798.38
2/28/1966 12:00,798.28
3/1/1966 12:00,798.25
3/2/1966 12:00,798.30
3/3/1966 12:00,798.30
3/4/1966 12:00,798.80
3/5/1966 12:00,799.03
3/6/1966 12:00,799.14
3/7/1966 12:00,799.01
3/8/1966 12:00,798.85
3/9/1966 12:00,798.85
3/10/1966 12:00,799.01
3/11/1966 12:00,799.27
3/12/1966 12:00,799.82
3/13/1966 12:00,799.83
3/14/1966 12:00,800.25
3/15/1966 12:00,799.38
3/16/1966 12:00,800.04
3/17/1966 12:00,800.19
3/18/1966 12:00,801.73
3/19/1966 12:00,801.02
3/20/1966 12:00,801.06
3/21/1966 12:00,801.33
3/22/1966 12:00,800.91
3/23/1966 12:00,800.39
3/24/1966 12:00,800.10
3/25/1966 12:00,799.62
3/26/1966 12:00,799.77
3/27/1966 12:00,799.59
3/28/1966 12:00,799.50
3/29/1966 12:00,799.27
3/30/1966 12:00,800.31
3/31/1966 12:00,800.34
4/1/1966 12:00,800.35
4/2/1966 12:00,800.33
4/3/1966 12:00,800.40
4/4/1966 12:00,800.47
4/5/1966 12:00,800.62
4/6/1966 12:00,800.57
4/7/1966 12:00,800.59
4/8/1966 12:00,800.58
4/9/1966 12:00,800.49
4/10/1966 12:00,800.38
4/11/1966 12:00,800.30
4/12/1966 12:00,800.21
4/13/1966 12:00,800.12
4/14/1966 12:00,800.00
4/15/1966 12:00,799.96
4/16/1966 12:00,799.94
4/17/1966 12:00,799.89
4/18/1966 12:00,799.95
4/19/1966 12:00,799.97
4/20/1966 12:00,800.10
4/21/1966 12:00,800.22
4/22/1966 12:00,800.26
4/23/1966 12:00,800.26
4/24/1966 12:00,800.35
4/25/1966 12:00,800.39
4/26/1966 12:00,800.42
4/27/1966 12:00,800.42
4/28/1966 12:00,800.50
4/29/1966 12:00,800.50
4/30/1966 12:00,800.53
5/1/1966 12:00,800.53
5/2/1966 12:00,800.48
5/3/1966 12:00,800.50
5/4/1966 12:00,800.43
5/5/1966 12:00,800.34
5/6/1966 12:00,800.28
5/7/1966 12:00,800.19
5/8/1966 12:00,800.11
5/9/1966 12:00,800.03
5/10/1966 12:00,799.91
5/11/1966 12:00,799.80
5/12/1966 12:00,799.78
5/13/1966 12:00,799.71
5/14/1966 12:00,799.58
5/15/1966 12:00,799.59
5/16/1966 12:00,799.63
5/17/1966 12:00,799.61
5/18/1966 12:00,799.65
5/19/1966 12:00,799.74
5/20/1966 12:00,799.68
5/21/1966 12:00,799.73
5/22/1966 12:00,799.55
5/23/1966 12:00,799.59
5/24/1966 12:00,799.65
5/25/1966 12:00,799.58
5/26/1966 12:00,799.63
5/27/1966 12:00,799.55
5/28/1966 12:00,799.46
5/29/1966 12:00,799.42
5/30/1966 12:00,799.30
5/31/1966 12:00,799.24
6/1/1966 12:00,799.06
6/2/1966 12:00,799.16
6/3/1966 12:00,798.83
6/4/1966 12:00,798.85
6/5/1966 12:00,798.91
6/6/1966 12:00,798.86
6/7/1966 12:00,798.74
6/8/1966 12:00,798.71
6/9/1966 12:00,798.76
6/10/1966 12:00,798.69
6/11/1966 12:00,798.61
6/12/1966 12:00,798.56
6/13/1966 12:00,798.47
6/14/1966 12:00,798.38
6/15/1966 12:00,798.31
6/16/1966 12:00,798.30
6/17/1966 12:00,798.11
6/18/1966 12:00,798.07
6/19/1966 12:00,798.18
6/20/1966 12:00,798.05
6/21/1966 12:00,797.89
6/22/1966 12:00,797.86
6/23/1966 12:00,799.25
6/24/1966 12:00,799.32
6/25/1966 12:00,799.69
6/26/1966 12:00,799.90
6/27/1966 12:00,799.06
6/28/1966 12:00,799.27
6/29/1966 12:00,799.27
6/30/1966 12:00,799.49
7/1/1966 12:00,799.32
7/2/1966 12:00,799.60
7/3/1966 12:00,798.92
7/4/1966 12:00,799.16
7/5/1966 12:00,798.86
7/6/1966 12:00,799.18
7/7/1966 12:00,798.96
7/8/1966 12:00,799.05
7/9/1966 12:00,798.90
7/10/1966 12:00,799.00
7/11/1966 12:00,799.14
7/12/1966 12:00,799.07
7/13/1966 12:00,799.13
7/14/1966 12:00,799.04
7/15/1966 12:00,799.05
7/16/1966 12:00,799.07
7/17/1966 12:00,799.05
7/18/1966 12:00,798.84
7/19/1966 12:00,798.85
7/20/1966 12:00,798.58
7/21/1966 12:00,798.46
7/22/1966 12:00,798.18
7/23/1966 12:00,798.28
7/24/1966 12:00,798.11
7/25/1966 12:00,797.96
7/26/1966 12:00,798.93
7/27/1966 12:00,798.77
7/28/1966 12:00,798.78
7/29/1966 12:00,799.00
7/30/1966 12:00,799.08
7/31/1966 12:00,799.00
8/1/1966 12:00,799.11
8/2/1966 12:00,799.05
8/3/1966 12:00,799.14
8/4/1966 12:00,799.03
8/5/1966 12:00,799.18
8/6/1966 12:00,798.95
8/7/1966 12:00,799.00
8/8/1966 12:00,799.33
8/9/1966 12:00,799.19
8/10/1966 12:00,799.00
8/11/1966 12:00,799.19
8/12/1966 12:00,799.39
8/13/1966 12:00,799.34
8/14/1966 12:00,799.45
8/15/1966 12:00,799.64
8/16/1966 12:00,799.70
8/17/1966 12:00,799.43
8/18/1966 12:00,799.44
8/19/1966 12:00,799.44
8/20/1966 12:00,799.42
8/21/1966 12:00,799.61
8/22/1966 12:00,799.73
8/23/1966 12:00,799.93
8/24/1966 12:00,799.46
8/25/1966 12:00,799.79
8/26/1966 12:00,799.72
8/27/1966 12:00,799.76
8/28/1966 12:00,799.61
8/29/1966 12:00,799.83
8/30/1966 12:00,799.72
8/31/1966 12:00,799.39
9/1/1966 12:00,799.61
9/2/1966 12:00,799.52
9/3/1966 12:00,799.40
9/4/1966 12:00,799.40
9/5/1966 12:00,799.27
9/6/1966 12:00,799.41
9/7/1966 12:00,799.25
9/8/1966 12:00,799.30
9/9/1966 12:00,799.24
9/10/1966 12:00,799.16
9/11/1966 12:00,799.17
9/12/1966 12:00,798.88
9/13/1966 12:00,799.05
9/14/1966 12:00,799.07
9/15/1966 12:00,799.27
9/16/1966 12:00,799.11
9/17/1966 12:00,799.13
9/18/1966 12:00,799.10
9/19/1966 12:00,799.12
9/20/1966 12:00,799.04
9/21/1966 12:00,799.03
9/22/1966 12:00,799.10
9/23/1966 12:00,798.90
9/24/1966 12:00,799.16
9/25/1966 12:00,798.68